Total_Precipitation_Accumulation
0.99 0.91 0.92 1.06 1.02 1.04 1.18 1.28 1.14 1.05 1.06 1.01 0.96 0.93 0.90 0.84 0.84 0.81 1.02 1.15 1.34 1.73 2.15 2.11 1.76 1.33 1.29 1.53 1.57 1.61 1.62 1.73 2.00 2.12 2.03 1.98 2.03 2.04 1.75 1.44 1.19 1.06 0.98
1.03 1.06 0.97 1.04 1.18 1.22 1.20 1.20 1.17 1.08 1.04 1.07 1.02 1.05 1.05 0.91 0.91 0.90 1.00 1.02 1.05 1.30 1.80 2.14 1.95 1.62 1.56 1.63 1.57 1.63 1.61 1.68 1.88 2.02 2.11 1.97 2.04 2.12 1.76 1.39 1.27 1.18 1.15
1.04 1.06 0.95 0.99 1.13 1.32 1.30 1.23 1.16 1.14 0.99 0.95 1.03 1.12 1.15 1.07 1.05 1.07 1.03 1.01 0.94 1.05 1.41 1.88 2.00 1.85 1.81 1.90 1.69 1.62 1.63 1.72 1.65 1.77 2.00 1.98 1.91 1.93 1.66 1.39 1.23 1.26 1.29
1.05 1.14 1.06 1.01 1.17 1.36 1.51 1.55 1.37 1.28 1.16 1.08 1.15 1.17 1.13 1.19 1.18 1.14 1.10 1.13 1.11 0.99 1.08 1.31 1.61 1.91 2.02 2.11 1.87 1.68 1.52 1.37 1.31 1.41 1.58 1.72 1.75 1.71 1.64 1.53 1.38 1.31 1.34
0.97 1.18 1.26 1.22 1.26 1.42 1.47 1.48 1.47 1.35 1.33 1.28 1.17 1.13 1.09 1.20 1.28 1.11 1.08 1.12 1.23 1.19 1.11 0.94 1.03 1.24 1.59 2.11 2.21 1.85 1.66 1.45 1.27 1.29 1.36 1.39 1.51 1.56 1.61 1.57 1.42 1.31 1.36
1.19 1.34 1.44 1.43 1.44 1.50 1.48 1.59 1.76 1.57 1.40 1.40 1.27 1.15 1.09 1.13 1.19 1.18 1.17 1.15 1.24 1.23 1.16 0.99 0.93 0.76 0.96 1.53 2.04 1.89 1.86 1.72 1.40 1.29 1.32 1.27 1.28 1.39 1.41 1.48 1.49 1.37 1.36
1.42 1.55 1.66 1.69 1.62 1.53 1.59 1.76 2.11 2.00 1.64 1.48 1.50 1.37 1.22 1.16 1.22 1.17 1.20 1.29 1.23 1.19 1.25 1.17 1.00 0.89 0.77 0.83 1.27 1.72 1.82 1.89 1.70 1.46 1.35 1.33 1.23 1.26 1.24 1.25 1.43 1.44 1.38
1.52 1.59 1.80 1.91 1.85 1.82 1.92 1.94 2.17 2.30 2.04 1.83 1.82 1.99 1.77 1.56 1.24 1.02 1.06 1.12 1.15 1.22 1.23 1.26 1.16 1.01 0.96 0.87 0.73 1.11 1.48 1.68 1.82 1.69 1.54 1.43 1.29 1.23 1.21 1.18 1.26 1.50 1.47
1.71 1.68 1.81 2.01 1.97 1.92 1.96 2.15 2.43 2.70 2.60 2.35 2.14 2.27 2.02 1.78 1.66 1.17 0.96 1.01 1.09 1.21 1.24 1.33 1.32 1.19 1.13 1.16 0.94 0.79 0.97 1.29 1.73 1.85 1.77 1.58 1.44 1.33 1.31 1.28 1.24 1.41 1.64
1.64 1.63 1.76 1.97 2.11 2.18 2.23 2.29 2.30 2.63 2.84 2.67 2.54 2.24 1.96 1.82 1.93 1.70 1.22 1.00 1.05 1.09 1.16 1.19 1.30 1.34 1.29 1.26 1.17 0.80 0.72 0.94 1.54 2.10 2.17 1.86 1.61 1.45 1.37 1.37 1.32 1.37 1.53
1.73 1.64 1.69 1.77 1.81 1.89 2.01 2.14 2.22 2.43 2.58 2.72 2.70 2.50 2.25 2.10 1.68 1.66 1.66 1.42 1.17 0.96 0.99 1.13 1.32 1.37 1.36 1.29 1.30 0.96 0.72 0.62 0.90 1.56 2.05 2.17 2.01 1.79 1.60 1.45 1.36 1.35 1.37
1.71 1.62 1.56 1.66 1.68 1.69 1.82 1.93 2.03 2.25 2.43 2.54 2.61 2.49 2.36 2.30 2.05 1.81 1.63 1.62 1.48 1.17 1.00 1.01 1.11 1.23 1.30 1.29 1.19 1.13 0.90 0.65 0.61 0.87 1.28 1.76 2.02 2.00 1.88 1.71 1.58 1.46 1.46
1.33 1.33 1.25 1.31 1.45 1.50 1.69 1.76 1.70 1.74 1.92 2.13 2.30 2.33 2.30 2.21 2.18 2.10 1.95 1.81 1.59 1.25 1.13 1.00 0.96 1.11 1.18 1.30 1.29 1.36 1.00 0.77 0.67 0.67 0.82 1.09 1.39 1.61 1.77 1.87 1.92 1.88 1.84
1.02 0.98 0.98 1.00 1.07 1.16 1.38 1.58 1.55 1.56 1.63 1.73 1.82 2.06 2.16 2.11 2.14 1.99 1.86 1.89 1.70 1.43 1.23 1.01 0.89 0.93 1.00 1.12 1.42 1.52 1.01 0.87 0.72 0.70 0.76 0.80 0.92 1.04 1.29 1.58 1.78 1.94 2.04
0.79 0.76 0.79 0.88 0.94 0.93 1.04 1.17 1.34 1.42 1.48 1.56 1.59 1.74 1.83 1.90 1.89 1.75 1.78 1.84 1.72 1.46 1.30 1.15 1.04 0.95 0.94 0.99 1.28 1.21 1.03 0.98 0.88 0.82 0.78 0.76 0.76 0.78 0.90 1.08 1.25 1.40 1.51
0.71 0.70 0.68 0.69 0.75 0.77 0.87 0.98 1.04 1.15 1.22 1.38 1.56 1.68 1.70 1.73 1.77 1.68 1.66 1.80 1.79 1.56 1.32 1.13 1.00 0.96 1.05 1.02 1.20 1.07 1.14 1.22 0.96 0.83 0.79 0.79 0.73 0.66 0.61 0.66 0.78 0.90 0.97
0.55 0.56 0.59 0.65 0.65 0.67 0.69 0.71 0.76 0.82 0.89 0.99 1.07 1.20 1.41 1.59 1.64 1.64 1.69 1.76 1.81 1.66 1.40 1.25 1.03 1.01 1.16 1.17 1.16 1.09 1.17 1.22 1.00 0.88 0.75 0.72 0.72 0.67 0.64 0.59 0.60 0.65 0.72
0.47 0.49 0.54 0.58 0.58 0.64 0.66 0.66 0.66 0.68 0.77 0.85 0.86 0.88 0.99 1.21 1.37 1.50 1.58 1.61 1.68 1.67 1.52 1.48 1.37 1.13 1.09 1.16 1.29 1.36 1.28 1.24 1.20 1.17 1.03 0.83 0.74 0.70 0.67 0.63 0.57 0.54 0.55
0.59 0.62 0.61 0.64 0.62 0.64 0.64 0.65 0.68 0.70 0.72 0.77 0.80 0.82 0.89 0.98 1.14 1.23 1.34 1.45 1.53 1.66 1.65 1.48 1.49 1.41 1.23 1.20 1.26 1.35 1.40 1.49 1.37 1.31 1.35 1.17 0.95 0.84 0.78 0.72 0.64 0.59 0.58
0.51 0.54 0.63 0.71 0.79 0.83 0.82 0.78 0.77 0.75 0.70 0.72 0.79 0.86 0.88 0.88 1.00 1.21 1.34 1.42 1.45 1.57 1.69 1.64 1.56 1.52 1.38 1.30 1.30 1.33 1.46 1.56 1.57 1.37 1.27 1.22 1.15 1.02 0.89 0.82 0.74 0.69 0.68
0.44 0.45 0.53 0.62 0.72 0.81 0.86 0.86 0.72 0.61 0.62 0.67 0.68 0.69 0.77 0.84 0.87 1.02 1.19 1.42 1.45 1.56 1.64 1.72 1.64 1.48 1.37 1.30 1.25 1.25 1.34 1.54 1.59 1.57 1.48 1.29 1.17 1.00 0.88 0.85 0.83 0.82 0.77
0.38 0.40 0.44 0.42 0.45 0.50 0.66 0.66 0.55 0.45 0.50 0.60 0.68 0.70 0.70 0.71 0.74 0.78 0.82 1.07 1.26 1.38 1.49 1.52 1.58 1.47 1.35 1.29 1.36 1.36 1.31 1.35 1.46 1.48 1.36 1.42 1.38 1.20 1.05 0.92 0.98 1.03 1.00
0.34 0.36 0.32 0.28 0.30 0.34 0.39 0.38 0.44 0.45 0.48 0.53 0.61 0.70 0.75 0.73 0.78 0.88 0.84 0.87 0.97 1.03 1.16 1.29 1.34 1.31 1.29 1.25 1.34 1.39 1.35 1.28 1.19 1.28 1.27 1.33 1.39 1.28 1.14 1.03 1.04 1.01 0.99
0.30 0.37 0.32 0.30 0.33 0.30 0.32 0.37 0.41 0.43 0.56 0.62 0.61 0.62 0.73 0.79 0.85 1.01 1.00 1.07 1.00 0.90 0.88 0.94 1.09 1.15 1.11 1.21 1.30 1.47 1.54 1.40 1.30 1.32 1.29 1.21 1.17 1.14 1.06 1.06 1.06 0.93 0.88
0.21 0.20 0.24 0.39 0.39 0.36 0.43 0.41 0.35 0.42 0.55 0.62 0.58 0.62 0.73 0.83 0.97 1.08 1.13 1.16 1.05 0.95 0.98 1.06 1.14 1.21 1.23 1.30 1.36 1.43 1.48 1.47 1.39 1.36 1.27 1.14 1.05 1.03 1.04 1.01 0.99 0.99 0.94
0.12 0.13 0.17 0.30 0.37 0.38 0.38 0.29 0.29 0.41 0.53 0.61 0.63 0.64 0.85 0.86 0.94 1.00 1.06 1.18 1.20 1.06 0.99 1.01 1.06 1.09 1.08 1.17 1.36 1.38 1.48 1.56 1.43 1.35 1.26 1.14 1.10 1.18 1.23 1.09 0.96 0.91 0.90